SQ2CET-13 Weather Reports


time (UTC)temp
C
wind
direction
speed
KPH
gust
KPH
rain 1hr
cm
rain 24hr
cm
rain mn
cm
humidity
%
barometer
mb
20260901201132 15 238 9.7 17.7 0.00 0.43 0.43 85 1016.1
20260901200024 15 247 6.4 11.3 0.00 0.43 0.43 85 1016.0
20260901195048 15 249 8.0 12.9 0.00 0.43 0.43 84 1016.2
20260901194112 15 249 6.4 16.1 0.00 0.43 0.43 84 1016.1
20260901193052 15 239 8.0 16.1 0.00 0.43 0.43 84 1016.1
20260901192056 15 252 6.4 16.1 0.00 0.43 0.43 84 1016.0
20260901191128 15 243 6.4 16.1 0.00 0.43 0.43 84 1016.0
20260901190040 15 240 6.4 12.9 0.00 0.43 0.43 84 1016.0
20260901185104 15 237 8.0 17.7 0.00 0.43 0.43 83 1015.9
20260901184025 15 246 8.0 14.5 0.00 0.43 0.43 83 1015.9
20260901183109 16 238 8.0 17.7 0.00 0.43 0.43 82 1015.9
20260901182112 16 238 4.8 14.5 0.00 0.43 0.43 82 1015.7
20260901181032 16 243 6.4 14.5 0.00 0.43 0.43 82 1015.7
20260901180057 16 243 8.0 19.3 0.00 0.43 0.43 81 1015.7
20260901175137 16 243 9.7 12.9 0.00 0.43 0.43 81 1015.8
20260901174041 16 246 6.4 14.5 0.00 0.43 0.43 82 1015.6
20260901173057 16 241 9.7 20.9 0.00 0.43 0.43 81 1015.5
20260901172120 16 240 9.7 19.3 0.00 0.43 0.43 80 1015.5
20260901171041 16 242 9.7 17.7 0.00 0.43 0.43 79 1015.3
20260901170104 17 242 11.3 22.5 0.00 0.43 0.43 77 1015.4
20260901165024 17 249 11.3 24.1 0.00 0.43 0.43 77 1015.2
20260901164048 17 258 8.0 19.3 0.00 0.43 0.43 76 1015.2
20260901163132 17 259 6.4 17.7 0.00 0.43 0.43 75 1015.2
20260901162024 17 250 11.3 25.7 0.00 0.43 0.43 74 1015.1
20260901161100 18 247 9.7 20.9 0.00 0.43 0.43 71 1015.1
20260901160104 19 237 14.5 25.7 0.00 0.43 0.43 68 1014.9
20260901155024 19 238 12.9 22.5 0.00 0.43 0.43 68 1014.9
20260901154108 18 248 9.7 20.9 0.00 0.43 0.43 72 1014.9
20260901153112 18 248 11.3 24.1 0.00 0.43 0.43 74 1014.8
20260901152125 18 236 11.3 17.7 0.00 0.43 0.43 75 1014.7
20260901151034 18 253 9.7 24.1 0.00 0.43 0.43 74 1014.7
20260901150057 17 249 8.0 11.3 0.00 0.43 0.43 79 1014.8
20260901145122 17 239 8.0 14.5 0.00 0.43 0.43 78 1014.7
20260901144036 18 245 9.7 20.9 0.00 0.43 0.43 76 1014.7
20260901143057 18 236 11.3 22.5 0.00 0.43 0.43 75 1014.7
20260901142114 18 250 9.7 25.7 0.00 0.43 0.43 75 1014.7
20260901141025 17 252 6.4 16.1 0.00 0.43 0.43 79 1014.6
20260901140041 17 236 14.5 25.7 0.00 0.43 0.43 78 1014.7
20260901135105 18 246 12.9 24.1 0.00 0.43 0.43 75 1014.6
20260901134122 18 265 6.4 14.5 0.00 0.43 0.43 75 1014.6
20260901133040 18 236 9.7 22.5 0.00 0.43 0.43 76 1014.4
20260901132104 18 253 8.0 17.7 0.00 0.43 0.43 75 1014.4
20260901131045 19 233 11.3 20.9 0.00 0.43 0.43 71 1014.3
20260901130048 18 253 9.7 19.3 0.00 0.43 0.43 72 1014.3
20260901125112 18 249 11.3 22.5 0.00 0.43 0.43 71 1014.3
20260901124121 18 239 14.5 27.4 0.00 0.43 0.43 71 1014.1
20260901123041 18 240 11.3 32.2 0.00 0.43 0.43 70 1014.2
20260901122104 18 241 11.3 20.9 0.00 0.43 0.43 73 1014.2
20260901121025 18 242 12.9 29.0 0.00 0.43 0.43 73 1014.2
20260901120042 17 243 14.5 32.2 0.00 0.43 0.43 75 1014.2
20260901115033 17 235 16.1 30.6 0.00 0.43 0.43 75 1014.2
20260901114049 17 250 9.7 29.0 0.00 0.43 0.43 76 1014.2
20260901113106 17 252 9.7 24.1 0.00 0.43 0.43 75 1014.2
20260901112026 17 244 11.3 27.4 0.00 0.43 0.43 77 1014.2
20260901111043 17 239 11.3 20.9 0.00 0.43 0.43 78 1014.2
20260901110106 17 246 17.7 27.4 0.00 0.43 0.43 75 1014.1
20260901105107 17 237 19.3 32.2 0.00 0.43 0.43 76 1014.2
20260901104110 17 244 11.3 25.7 0.00 0.43 0.43 76 1014.1
20260901103115 17 238 14.5 30.6 0.00 0.43 0.43 74 1014.0
20260901102032 18 234 14.5 25.7 0.00 0.43 0.43 74 1013.9
20260901101057 17 243 9.7 20.9 0.00 0.43 0.43 78 1013.9
20260901100120 17 236 14.5 20.9 0.00 0.43 0.43 79 1013.8
20260901095041 16 243 11.3 24.1 0.00 0.43 0.43 80 1013.7
20260901094104 16 242 9.7 24.1 0.00 0.43 0.43 83 1013.8
20260901093122 15 246 8.0 20.9 0.03 0.43 0.43 85 1013.7
20260901092041 15 241 11.3 24.1 0.03 0.43 0.43 86 1013.8
20260901091105 15 243 8.0 19.3 0.05 0.43 0.43 87 1013.7
20260901090024 15 237 8.0 16.1 0.05 0.43 0.43 88 1013.7
20260901085040 15 237 11.3 20.9 0.05 0.43 0.43 88 1013.6
20260901084103 15 234 11.3 19.3 0.05 0.43 0.43 88 1013.6
20260901083017 15 238 9.7 16.1 0.05 0.43 0.43 88 1013.4
20260901082055 15 240 6.4 16.1 0.03 0.41 0.41 88 1013.4
20260901081057 15 239 9.7 17.7 0.03 0.41 0.41 88 1013.3
20260901080017 15 235 8.0 17.7 0.03 0.38 0.38 88 1013.3
20260901075042 14 235 8.0 19.3 0.03 0.38 0.38 88 1013.2
20260901074059 14 252 8.0 20.9 0.05 0.38 0.38 88 1013.1
20260901073038 14 235 12.9 22.5 0.05 0.38 0.38 88 1012.9
20260901072102 14 241 8.0 17.7 0.08 0.38 0.38 88 1012.7
20260901071106 14 235 11.3 19.3 0.10 0.36 0.36 88 1012.6
20260901070017 14 231 9.7 20.9 0.10 0.36 0.36 88 1012.5
20260901065041 15 234 8.0 16.1 0.10 0.36 0.36 88 1012.4
20260901064057 15 234 11.3 20.9 0.08 0.33 0.33 88 1012.5
20260901063121 15 232 9.7 19.3 0.08 0.33 0.33 88 1012.3
20260901062041 15 237 9.7 20.9 0.05 0.30 0.30 87 1012.2
20260901061105 15 236 12.9 27.4 0.03 0.28 0.28 87 1012.2
20260901060025 15 232 11.3 22.5 0.00 0.25 0.25 86 1012.1
20260901055049 15 244 9.7 20.9 0.00 0.25 0.25 87 1012.0
20260901054105 15 237 12.9 27.4 0.00 0.25 0.25 87 1012.0
20260901053025 15 242 12.9 20.9 0.03 0.25 0.25 86 1011.9
20260901052041 15 247 6.4 20.9 0.08 0.25 0.25 88 1011.9
20260901051105 15 254 6.4 14.5 0.18 0.25 0.25 89 1011.9
20260901050028 15 245 8.0 12.9 0.18 0.25 0.25 88 1011.7
20260901045048 15 248 4.8 9.7 0.18 0.25 0.25 88 1011.7
20260901044112 15 254 3.2 8.0 0.18 0.23 0.23 88 1011.9
20260901043034 15 240 6.4 8.0 0.18 0.23 0.23 88 1012.0
20260901042056 15 265 3.2 16.1 0.10 0.18 0.18 86 1012.0
20260901041018 15 234 8.0 17.7 0.00 0.08 0.08 85 1011.9
20260901040040 15 231 9.7 20.9 0.00 0.08 0.08 85 1011.9
20260901035057 15 246 9.7 27.4 0.08 0.08 0.08 85 1011.8
20260901034016 15 241 9.7 24.1 0.05 0.05 0.05 85 1011.8
20260901033042 15 242 9.7 19.3 0.05 0.05 0.05 85 1011.8
20260901032105 15 231 8.0 17.7 0.05 0.05 0.05 85 1011.7
20260901031024 16 244 8.0 17.7 0.05 0.05 0.05 85 1011.7
20260901030048 15 216 4.8 12.9 0.05 0.05 0.05 86 1011.7
20260901025113 16 209 4.8 11.3 0.00 0.00 0.00 83 1011.5
20260901024036 16 227 6.4 20.9 0.00 0.00 0.00 82 1011.3
20260901023056 16 249 3.2 9.7 0.00 0.00 0.00 82 1011.3
20260901022121 16 236 3.2 11.3 0.00 0.00 0.00 83 1011.4
20260901021040 16 239 3.2 9.7 0.00 0.00 0.00 83 1011.5
20260901015121 16 217 4.8 9.7 0.00 0.00 0.00 83 1011.5
20260901014042 16 236 3.2 8.0 0.00 0.00 0.00 83 1011.3
20260901013104 16 222 4.8 9.7 0.00 0.00 0.00 84 1011.6
20260901012046 16 222 4.8 8.0 0.00 0.00 0.00 84 1011.6
20260901011044 16 212 4.8 8.0 0.00 0.00 0.00 84 1011.6
20260901010107 16 190 3.2 6.4 0.00 0.00 0.00 85 1011.6
20260901005025 16 176 3.2 6.4 0.00 0.00 0.00 85 1011.7
20260901004110 15 211 3.2 6.4 0.00 0.00 0.00 86 1011.6
20260901003113 15 131 0.0 3.2 0.00 0.00 0.00 87 1011.4
20260901002033 15 0.0 1.6 0.00 0.00 0.00 86 1011.4
20260901001056 15 0.0 1.6 0.00 0.00 0.00 85 1011.6
20260901000016 15 0.0 3.2 0.00 0.00 0.00 84 1011.6
20260831235040 15 0.0 3.2 0.00 0.00 0.00 84 1011.6
20260831234057 15 213 0.0 3.2 0.00 0.00 0.00 84 1011.5
20260831233017 15 130 1.6 3.2 0.00 0.00 0.00 84 1011.6
20260831232042 15 159 0.0 4.8 0.00 0.00 0.00 84 1011.8
20260831231107 16 47 0.0 3.2 0.00 0.00 0.00 84 1011.9
20260831230025 16 0.0 0.0 0.00 0.00 0.00 84 1011.9
20260831225049 16 121 0.0 3.2 0.00 0.00 0.00 84 1012.0
20260831224134 16 0.0 3.2 0.00 0.00 0.00 83 1012.3
20260831223034 16 83 0.0 3.2 0.00 0.00 0.00 84 1012.6
20260831222058 17 331 0.0 4.8 0.00 0.00 0.00 83 1012.7
20260831221018 16 0.0 0.0 0.00 0.00 0.00 84 1012.6
20260831220042 16 0.0 3.2 0.00 0.00 0.00 84 1012.6
20260831215127 16 323 1.6 4.8 0.00 0.00 0.00 83 1012.6
20260831214026 16 279 4.8 9.7 0.00 0.00 0.00 82 1012.7
20260831213109 17 225 1.6 8.0 0.00 0.00 0.00 80 1012.5
20260831212114 17 216 3.2 9.7 0.00 0.00 0.00 80 1012.5
20260831211025 17 222 1.6 8.0 0.00 0.00 0.00 80 1012.4
20260831210110 17 188 3.2 11.3 0.00 0.00 0.00 80 1012.3
20260831205115 17 235 3.2 9.7 0.00 0.00 0.00 79 1012.4
20260831204033 17 183 4.8 9.7 0.00 0.00 0.00 79 1012.2
20260831203100 17 185 4.8 8.0 0.00 0.00 0.00 80 1012.2
20260831202142 16 221 1.6 6.4 0.00 0.00 0.00 82 1012.4